Content
SEND FEEDBACK

Daily
Averages
Monthly
Summary
Germany

REGENSBERG, GERMANY


Home > Europe > Germany
Elevation: 1113 feet     Latitude: 49 02N     Longitude: 012 04E

WEATHER
 
SELECT A DAY
Number of Records: 83,352;   Date Range: 7/3/96 - 11/24/14
 
SHARE

PRINT THIS DATA

[ ← Previous Day ]
WEATHER ALMANAC - FEBRUARY 5, 2013
[ Next Day → ]
[ °C ]   °F
Weather ElementAverageHighLow
Temperature36.4 °F43.5 °F (1:58 pm)32 °F (10:33 pm)
Dewpoint33.3 °F35.8 °F (12:58 am)29.1 °F (7:58 pm)
Humidity88.7 %100 % (4:10 am)64 % (1:58 pm)
Barometer29.69 in29.91 in (12:58 am)29.53 in (10:33 pm)
Wind Speed8 mph26.5 mph (2:07 pm)
Wind Gust48.3 mph (2:07 pm)
Weather ElementAverage
Visibility5.4 mi
Wind DirectionS (174.8 °)

Weather ElementTotal
Precipitation---
Heating Degree Days27.3 (Base 65)
Averaged from 71 records on February 5, 2013
WEATHER CONDITIONS BREAKOUT
WIND DIRECTION BREAKOUT
WEATHER BY HOUR - FEBRUARY 5, 2013
[ °C ]   °F
Local TimeTemperatureDewpointHumidityBarometerVisibilityWind DirectionWind SpeedGust SpeedPrecipitationEventsConditions
12:23 AM37.4 °F35.6 °F93 %29.87 in6.2 miWest (280°)4.6 mphLight Drizzle
12:58 AM37.4 °F35.8 °F94 %29.91 in6.2 miCalmRainLight Rain
1:06 AM37.4 °F35.6 °F93 %29.85 in6.2 miCalmRainLight Rain
1:40 AM37.4 °F35.6 °F93 %29.85 in5.0 miWNW (300°)3.5 mphRainRain
1:47 AM37.4 °F35.6 °F93 %29.85 in5.6 miWest (280°)3.5 mphRainLight Rain
1:49 AM37.4 °F35.6 °F93 %29.85 in5.6 miVariable4.6 mphRainLight Rain
1:55 AM37.4 °F35.6 °F93 %29.85 in6.2 miWest (280°)4.6 mphRainLight Rain
1:58 AM36.7 °F35.2 °F95 %29.91 in6.2 miWest (270°)2.3 mphRainLight Rain
2:12 AM37.4 °F35.6 °F93 %29.85 in6.2 miVariable3.5 mphOvercast
2:15 AM37.4 °F35.6 °F93 %29.85 in6.2 miWSW (250°)2.3 mphRainLight Rain
2:58 AM36.3 °F34.7 °F94 %29.89 in6.2 miWSW (240°)3.5 mphRainLight Rain
3:19 AM35.6 °F33.8 °F93 %29.81 in6.2 miVariable2.3 mphRainLight Rain
3:25 AM35.6 °F33.8 °F93 %29.81 in6.2 miSW (220°)2.3 mphRainLight Rain
3:30 AM35.6 °F33.8 °F93 %29.81 in6.2 miVariable2.3 mphRainLight Rain
3:36 AM35.6 °F33.8 °F93 %29.81 in6.2 miWest (260°)2.3 mphRainLight Rain
3:44 AM35.6 °F33.8 °F93 %29.80 in6.2 miSW (220°)2.3 mphRainLight Rain
3:58 AM35.8 °F34.5 °F95 %29.79 in5.6 miSW (230°)2.3 mphRainLight Rain
4:10 AM35.6 °F35.6 °F100 %29.78 in6.2 miVariable3.5 mphRainLight Rain
4:28 AM37.4 °F35.6 °F93 %29.77 in6.2 miVariable5.8 mphRainLight Rain
4:36 AM37.4 °F35.6 °F93 %29.76 in6.2 miVariable6.9 mphRainLight Rain
4:37 AM37.4 °F35.6 °F93 %29.77 in6.2 miVariable6.9 mphMostly Cloudy
4:45 AM37.4 °F35.6 °F93 %29.76 in6.2 miVariable6.9 mphMostly Cloudy
4:46 AM37.4 °F35.6 °F93 %29.76 in6.2 miWSW (240°)6.9 mphRainLight Rain
4:54 AM37.4 °F35.6 °F93 %29.76 in6.2 miWSW (250°)8.1 mphRainLight Rain
5:04 AM37.4 °F35.6 °F93 %29.76 in6.2 miVariable6.9 mphRainLight Rain
5:27 AM37.4 °F35.6 °F93 %29.75 in6.2 miWSW (240°)5.8 mphRainLight Rain
5:28 AM37.4 °F35.6 °F93 %29.74 in6.2 miSW (230°)8.1 mphMostly Cloudy
5:58 AM37.2 °F34.7 °F91 %29.73 in6.2 miWest (260°)5.8 mphScattered Clouds
6:58 AM37.2 °F34.0 °F88 %29.71 in6.2 miSW (230°)9.2 mphOvercast
7:58 AM36.9 °F33.6 °F88 %29.74 in6.2 miWSW (240°)6.9 mphOvercast
8:51 AM37.4 °F33.8 °F87 %29.67 in6.2 miSW (220°)6.9 mphRainLight Rain
8:58 AM36.5 °F33.8 °F90 %29.73 in6.2 miSSW (210°)6.9 mphRainLight Rain
9:05 AM35.6 °F33.8 °F93 %29.66 in6.2 miSW (220°)5.8 mphOvercast
9:13 AM37.4 °F33.8 °F87 %29.66 in6.2 miSW (230°)8.1 mphRainLight Rain
9:34 AM35.6 °F33.8 °F93 %29.66 in6.2 miVariable6.9 mphOvercast
9:37 AM35.6 °F33.8 °F93 %29.66 in6.2 miSW (230°)5.8 mphOvercast
9:58 AM36.5 °F34.2 °F91 %29.70 in6.2 miVariable2.3 mphOvercast
10:01 AM37.4 °F33.8 °F87 %29.65 in6.2 miVariable4.6 mphOvercast
10:58 AM38.5 °F35.6 °F89 %29.68 in6.2 miVariable6.9 mphScattered Clouds
11:58 AM42.4 °F35.6 °F77 %29.65 in6.2 miVariable6.9 mphMostly Cloudy
12:58 PM42.6 °F33.4 °F70 %29.62 in6.2 miWSW (240°)8.1 mphOvercast
1:58 PM43.5 °F32.0 °F64 %29.58 in6.2 miWSW (250°)12.7 mph25.3 mphMostly Cloudy
2:04 PM42.8 °F32.0 °F66 %29.55 in6.2 miWest (260°)20.7 mph35.7 mphRainLight Rain
2:07 PM42.8 °F32.0 °F66 %29.58 inWNW (290°)26.5 mph48.3 mphRainLight Rain
2:08 PM41.0 °F32.0 °F70 %29.58 in1.5 miWNW (290°)20.7 mph48.3 mphRainLight Rain
2:10 PM39.2 °F32.0 °F75 %29.58 in1.0 miWest (280°)19.6 mph48.3 mphRainLight Rain
2:12 PM37.4 °F32.0 °F81 %29.57 in0.7 miWNW (290°)20.7 mph48.3 mphRainLight Rain
2:14 PM35.6 °F32.0 °F87 %29.58 in0.7 miWest (280°)20.7 mph48.3 mphSnowLight Snow
2:16 PM35.6 °F32.0 °F87 %29.58 in0.7 miWNW (290°)19.6 mph42.6 mphSnowLight Snow
2:17 PM35.6 °F32.0 °F87 %29.58 in1.0 miWNW (290°)19.6 mph29.9 mphSnowLight Snow
2:19 PM35.6 °F32.0 °F87 %29.58 in1.2 miWNW (290°)17.3 mph28.8 mphSnowLight Snow
2:20 PM35.6 °F32.0 °F87 %29.58 in1.2 miWNW (290°)17.3 mph27.6 mphSnowLight Snow
2:21 PM35.6 °F32.0 °F87 %29.58 in1.5 miWest (280°)17.3 mph27.6 mphSnowLight Snow
2:22 PM35.6 °F32.0 °F87 %29.58 in1.5 miWNW (290°)12.7 mph27.6 mphSnowLight Snow
2:24 PM33.8 °F32.0 °F93 %29.58 inWest (280°)12.7 mph25.3 mphSnowLight Snow
2:29 PM33.8 °F32.0 °F93 %29.57 in3.1 miWest (270°)6.9 mph24.2 mphSnowLight Snow
2:54 PM33.8 °F32.0 °F93 %29.56 in6.2 miWSW (240°)5.8 mphSnowLight Snow
2:55 PM33.8 °F32.0 °F93 %29.56 in6.2 miWSW (240°)6.9 mphOvercast
2:58 PM33.8 °F32.0 °F93 %29.62 in6.2 miWSW (250°)8.1 mphOvercast
3:58 PM35.1 °F31.6 °F87 %29.61 in6.2 miVariable6.9 mphScattered Clouds
4:58 PM34.5 °F30.4 °F85 %29.61 in6.2 miSW (230°)6.9 mphScattered Clouds
5:58 PM34.0 °F29.7 °F84 %29.60 in6.2 miSW (220°)10.4 mphClear
6:58 PM33.6 °F29.7 °F85 %29.59 in6.2 miSW (230°)10.4 mphPartly Cloudy
7:58 PM33.4 °F29.1 °F84 %29.58 in6.2 miWSW (240°)4.6 mphClear
8:58 PM33.1 °F29.5 °F87 %29.58 in6.2 miVariable2.3 mphClear
9:58 PM32.9 °F29.8 °F88 %29.58 in6.2 miVariable4.6 mphClear
10:33 PM32.0 °F30.2 °F93 %29.53 in6.2 miSW (220°)8.1 mphMostly Cloudy
10:38 PM32.0 °F30.2 °F93 %29.53 in6.2 miVariable4.6 mphMostly Cloudy
10:46 PM32.0 °F30.2 °F93 %29.53 in6.2 miVariable4.6 mphScattered Clouds
10:58 PM33.1 °F29.8 °F88 %29.59 in6.2 miSW (230°)5.8 mphMostly Cloudy
11:58 PM32.5 °F29.5 °F88 %29.55 in6.2 miSW (220°)6.9 mphClear
Hourly data recorded from ETIH, located miles away from Regensberg, Germany







STORIES FROM OUR PARTNERS